Regional Weather Roundup
Issued by NWS Wakefield, VA

Home | Current Version | Previous Version | Graphics & Text | Print | Product List | Glossary On
Versions: 1 2 3 4 5 6 7 8 9 10 11 12 13 14 15 16 17 18 19 20 21 22 23 24 25 26 27 28 29 30 31 32 33 34 35 36 37 38 39 40 41 42 43 44 45 46 47 48 49 50
000
ASUS41 KAKQ 271110
RWRAKQ

REGIONAL WEATHER ROUNDUP
NATIONAL WEATHER SERVICE WAKEFIELD VA
600 AM EST FRI FEB 27 2015

Note: "fair" indicates few or no clouds below 12,000 feet with no
significant weather and/or obstructions to visibility. * = Denotes
station may not report precipitation (e.g., rain,snow,etc.),
thunder or fog.

VAZ042-051-052>054-056-271200-
NORTHERN VIRGINIA

CITY           SKY/WX    TMP DP  RH WIND       PRES   REMARKS
WASH NATIONAL  FLURRIES  34  23  64 NW6       30.28R
DULLES         CLOUDY    29  20  69 N7        30.27R
FORT BELVOIR   MOCLDY    32  25  74 NW2       30.28R
QUANTICO       CLOUDY    32  25  75 VRB3      30.29R
FREDERICKSBRG* CLOUDY    32  29  90 CALM      30.26R
STAFFORD*      CLOUDY    30  30 100 N6        30.30R
WARRENTON      CLOUDY    32  26  78 N7        30.26R
CULPEPER*      MOCLDY    30  21  69 N8        30.26R
MANASSAS*      CLOUDY    30  27  86 N9        30.28R
LEESBURG*      CLOUDY    30  23  74 N8        30.29R
WINCHESTER     CLOUDY    27   9  46 NW15      30.26R WCI  15
FRONT ROYAL*   PTSUNNY   25  18  74 NE5       30.25R
LURAY*         FAIR      28  23  80 NE7       30.23R
$$

VAZ048-049-060>072-079>083-271200-
CENTRAL AND SOUTH CENTRAL VIRGINIA

CITY           SKY/WX    TMP DP  RH WIND       PRES   REMARKS
RICHMOND       CLOUDY    30  28  92 CALM      30.24R FOG
CHESTERFIELD*  FAIR      27  16  63 CALM      30.25R VSB 1
PETERSBURG*    MOCLDY    25  24  98 CALM      30.25R FOG
HANOVER        CLOUDY    29  28  96 CALM      30.26R FOG
TAPPAHANNOCK*  CLOUDY    28  26  89 CALM      30.27R
QUINTON*       CLOUDY    28  27  99 CALM      30.25R
CHARLOTTSVILLE CLEAR     27  23  85 VRB3      30.23R
GORDONSVILLE*  FAIR      23  21  95 CALM      30.24R FOG
ORANGE*        CLOUDY    28  27  93 CALM      30.26R
LOUISA*        CLEAR     27  25  93 CALM      30.22R FOG
BUMPASS*       FAIR      27  26  96 CALM      30.23R
FARMVILLE*     CLEAR     18  17  98 CALM      30.22R FOG
CREWE*         FAIR      23  21  94 CALM      30.22R
FORT PICKETT*  PTSUNNY   24  24  98 MISG      30.23R VSB<1/4
CHASE CITY*    FAIR      25  25 100 CALM      30.24R
CLARKSVILLE*   FAIR      25  25 100 CALM      30.23R
SOUTH HILL*      N/A     24  23  98 CALM      30.30R VSB 1/4
LAWRENCEVILLE* FAIR      27  26  99 CALM      30.24R
EMPORIA*       FOG       21  21 100 CALM      30.28R VSB 1/4
$$

VAZ088>098-271200-
SOUTHEAST VIRGINIA

CITY           SKY/WX    TMP DP  RH WIND       PRES   REMARKS
NORFOLK        CLEAR     25  23  92 CALM      30.25R FOG
VIRGINIA BEACH CLEAR     26  24  92 CALM      30.25R
NORFOLK NAVAL  PTCLDY    28  23  81 NE3       30.27R FOG
WEST POINT*    CLOUDY    28  26  91 CALM      30.28R
SALUDA*        CLOUDY    25  24  95 CALM      30.26R
NEWPORT NEWS   MOCLDY    23  19  85 CALM      30.26R
LANGLEY AFB    FOG       21  19  93 NW1       30.26R VSB 3/4
FORT EUSTIS    MOCLDY    25  25 100 CALM      30.25R
WILLIAMSBURG*  PTCLDY    28  27  93 CALM      30.27R
HR EXEC AP*    FAIR      18  12  79 CALM      30.28R
FRANKLIN*      CLEAR     20  19  96 CALM      30.27R FOG
WAKEFIELD      HAZE      24  19  81 CALM      30.26R VSB 1/2
$$

VAZ020-022-025-037-045-271200-
WEST CENTRAL AND SOUTHWEST VIRGINIA

CITY           SKY/WX    TMP DP  RH WIND       PRES   REMARKS
STAUNTON*      MOCLDY    23  17  77 CALM      30.23R
WAYNESBORO*    FAIR      24  15  70 NW3       30.19R
HOT SPRINGS VA PTCLDY    14  10  85 W13       30.04R WCI   0
LYNCHBURG      CLEAR     25  21  85 W6        30.24R
DANVILLE       PTCLDY    23  20  88 W5        30.26R FOG
SOUTH BOSTON*  FAIR      21  19  92 CALM      30.26R
MARTINSVILLE   CLEAR     22  22 100 CALM      30.28R
ROANOKE        PTCLDY    28  15  58 NW8       30.26R
BLACKSBURG     MOCLDY    23  14  68 W6        30.22R
DUBLIN*        FLURRIES  26  19  72 NW7       30.22R
MARION*        FLURRIES  26  18  72 W8        30.21R
HILLSVILLE*    FLURRIES  23  18  80 NW7       30.17R
RICHLANDS*     FLURRIES  20  16  82 NW6       30.21R
WISE*          FLURRIES  21  19  93 NW8       30.23R
ABINGDON*      CLOUDY    27  19  74 NW5       30.23R
$$

MDZ021>025-VAZ099-100-271200-
SOUTHERN MARYLAND AND THE DELMARVA PENINSULA

CITY           SKY/WX    TMP DP  RH WIND       PRES   REMARKS
PATUXENT RIVER CLOUDY    27  23  85 CALM      30.27R
BAY BRIDGE APT   N/A     30  23  74 N3        30.28R
LEONARDTOWN    CLOUDY    28  25  86 CALM      30.28R
DOVER          CLOUDY    24  24  99 NW5       30.28R
GEORGETOWN     CLOUDY    27  17  66 CALM      30.27R
EASTON         CLOUDY    28  27  93 CALM      30.30R
CAMBRIDGE      MOCLDY    28  25  86 CALM      30.26R
SALISBURY      CLOUDY    24  19  81 CALM      30.26R
OCEAN CITY     CLOUDY    19  16  88 MISG      30.26R FOG
WALLOPS ISLAND CLEAR     18  16  92 NW3       30.27R
ACCOMACK*      PTCLDY   N/A N/A N/A NE3       30.25R FOG
$$

NCZ012>017-030>032-271200-
NORTH CENTRAL AND EASTERN NORTH CAROLINA

CITY           SKY/WX    TMP DP  RH WIND       PRES   REMARKS
ROANOKE RAPIDS CLOUDY    27  27 100 CALM      30.26R FOG
RALEIGH        PTCLDY    24  21  88 CALM      30.26R FOG
ELIZABETH CITY PTCLDY    27  25  92 NW5       30.26R
AHOSKIE*       FOG       24  23  96 CALM      30.27R VSB 1/2
EDENTON*         N/A     28  27  96 CALM      30.26R FOG
CURRITUCK*     PTCLDY    28  25  89 CALM      30.26R
KILL DEVIL HLS PTCLDY    32  30  92 N5        30.23R
MANTEO         PTCLDY    32  28  86 N8        30.25R
CAPE HATTERAS  CLOUDY    34  31  88 VRB6      30.23R
TARBORO*         N/A     25  24  96 CALM      30.28R FOG
GOLDSBORO      PTCLDY    29  29  99 CALM      30.23R FOG
WASHINGTON     MOCLDY    29  28  96 CALM      30.26R FOG
GREENVILLE     FOG       28  28 100 CALM      30.26R VSB<1/4
NEW BERN       CLOUDY    32  29  88 N3        30.26R
WILMINGTON     CLOUDY    33  31  92 N5        30.26R FOG
$$

VAZ048-271200-
ELSEWHERE

CITY           SKY/WX    TMP DP  RH WIND       PRES   REMARKS
HARRISBURG PA  FLURRIES  20  11  68 NW9       30.31R
BALTIMORE      CLOUDY    27  22  81 CALM      30.27R
ANNAPOLIS      CLOUDY    28  24  85 NW3       30.27R
ANDREWS AFB    MOCLDY    30  23  75 NW3       30.26R
PHILADELPHIA   LGT SNOW  24  15  68 N9        30.31R
HENDERSON NC   CLEAR     27  26  95 CALM      30.24R
GREENSBORO     FOG       26  25  96 NW3       30.23R VSB 3/4
ROCKY MOUNT    FOG       25  23  92 CALM      30.26R VSB 1/2
$$

VAZ100-271200-
MARINE

STATION/POSITION TIME  TEMP    WIND        PRES    WAVE   SWELL
                       AIR SEA DIR/SP/G            HT/PER HT/PER
                 (UTC) (F)     (DEG/KT/KT) (MB)    (FT/S) (FT/S)
BRANDYWINE LGT   1100   27 29   30/  7/  8 1025.0R
CAPE MAY NJ      1100   23 32   30/  3/  5 1024.4S
LEWES DE         1100   29 30   10/  7/  7 1024.8R
15NM E FENWICK I 1100   31 36              1024.2R   6/ 9
OCEAN-CITY-INLET 1100   26 31  350/  4/  5 1024.1R
WACHAPREAGUE VA  1100   22 32  320/  2/  2 1024.4S
THOMAS POINT MD  1100   30 31  350/  6/  7 1026.2R
COVE POINT MD    1100   29      CALM  /  1 1024.5R
SOLOMONS ISLAND  1100      32                N/A
BISHOPS HEAD MD  1100   28 31  100/  3/  3 1024.0S
CAMBRIDGE MD     1100   27 32   CALM  /  1 1024.6R
LEWISETTA VA     1100   27 32              1024.6R
RAPPAHANNOCK LGT 1100           40/  5/  5 1024.9R
STINGRAY PT      1100   30      20/  4/  4   N/A
YORK RVR RNG VA  1100   30      20/  3/  3 1023.8R
YORKTOWN VA      1100   28 33  260/  1/  1 1024.3R
DOMINION TERM VA 1100   28      10/  3/  4 1024.4R
KIPTOPEKE VA     1100      36   10/  3/  4   N/A
CHES BAY BRIDGE  1100   31 33   10/  6/  7 1023.9S
CAPE HENRY VA    1100   29     360/  6/  7 1023.1R
CHESAPEAKE LGHT  1000   32      20/ 12/ 13 1024.0R
WILLOUBY STN VA  1100   29      10/  4/  5 1024.8R
S CRANEY ISL VA  1100           10/  5/  5 1024.4R
CAPE HENRY BUOY  1100      35                N/A     5/11   2/11
1ST LANDING BUOY 1100   31      10/  8/ 10 1023.9R
OFFSHORE WE BUOY 1100      38                N/A     6/ 9   7/ 9
64NM E OF VA BCH 1100   42 60  360/ 17/ 21 1022.5R   9/10   8/10
DUCK PIER NC     1100   33 34   10/ 10/ 12 1023.1R
44100 DUCK FRF   1100      36                N/A     8/10   3/12
44056 DUCK FRF   1100      34                N/A     7/12   3/12
OREGON INLET NC  1100   34 37  340/  9/ 14 1023.7R
HATTERAS NC      1100   34 40  350/ 18/ 20 1023.6R
CAPE LOOKOUT NC  1100   34     360/  9/ 12 1024.3R
$$


USA.gov is the U.S. government's official web portal to all federal, state and local government web resources and services.